Date String (YYYY-MM-DD hh:mm:ss) UTC,Instrument flags,absolute air pressure of the measurement (hPa),sample flow rate (lpm),inlet stack bypass flow (lpm),air temperature of the measurement (°C),ambient temperature measured by the external sensor (°C),aerosol sample conditioner tube jacket temperature (°C),OPC LED temperature (°C),internal box temperature (°C),relative humidity of the measurement (%),span deviation,mass concentration of particles derived from Lorenz-Mie calculation of OPC scattering (μg/m³),mass concentration of particles derived from Lorenz-Mie calculation of OPC scattering (μg/m³),mass concentration of particles derived from Lorenz-Mie calculation of OPC scattering (μg/m³)
DateTimeUTC,F1_M11,P_M11,Q1_M11,Q2_M11,T1_M11,T2_M11,T3_M11,T4_M11,T5_M11,U1_M11,ZSPAN_M11,X2_M11,X0_M11,X1_M11
2024-01-26 11:00:00,SystemResetWarning,0830.1,5.00,000.00,021.9,020.7,000.0,030.2,023.2,22.1,0000.1,0005.14,0007.32,0005.01
2024-01-26 11:01:00,SystemResetWarning,0830.1,5.00,000.00,021.9,020.7,000.0,030.2,023.3,22.0,-000.1,0005.08,0007.22,0004.95
2024-01-26 11:02:00,SystemResetWarning,0830.1,5.01,000.00,021.9,020.7,000.0,030.2,023.2,22.0,-000.0,0005.01,0007.08,0004.88
2024-01-26 11:03:00,SystemResetWarning,0830.1,5.01,000.00,021.8,020.6,000.0,030.2,023.2,22.1,-000.1,0004.95,0007.16,0004.83
2024-01-26 11:04:00,SystemResetWarning,0830.2,5.00,000.00,021.8,020.6,000.0,030.2,023.2,22.1,0000.0,0004.92,0007.53,0004.80
2024-01-26 11:05:00,SystemResetWarning,0830.1,5.01,000.00,021.8,020.6,000.0,030.2,023.2,22.1,-000.1,0004.90,0007.51,0004.78
2024-01-26 11:06:00,SystemResetWarning,0830.2,5.00,000.00,021.8,020.6,000.0,030.2,023.2,22.1,0000.2,0004.88,0007.46,0004.76
2024-01-26 11:07:00,SystemResetWarning,0830.2,4.99,000.00,021.8,020.6,000.0,030.2,023.2,22.1,0000.1,0004.88,0007.46,0004.76
2024-01-26 11:08:00,SystemResetWarning,0830.2,5.00,000.00,021.8,020.6,000.0,030.2,023.2,22.1,0000.0,0004.87,0007.45,0004.75
2024-01-26 11:09:00,SystemResetWarning,0830.2,5.00,000.00,021.8,020.6,000.0,030.2,023.2,22.1,0000.0,0004.86,0007.43,0004.74
2024-01-26 11:10:00,SystemResetWarning,0830.2,5.00,000.00,021.8,020.6,000.0,030.2,023.2,22.2,0000.0,0004.87,0007.47,0004.74
2024-01-26 11:11:00,SystemResetWarning,0830.2,5.01,000.00,021.8,020.6,000.0,030.2,023.2,22.2,0000.0,0004.86,0007.41,0004.74
2024-01-26 11:12:00,SystemResetWarning,0830.2,5.01,000.00,021.8,020.6,000.0,030.2,023.1,22.1,0000.0,0004.89,0007.43,0004.74
2024-01-26 11:13:00,SystemResetWarning,0830.2,5.00,000.00,021.8,020.6,000.0,030.2,023.1,22.1,0000.0,0004.88,0007.42,0004.74
2024-01-26 11:14:00,SystemResetWarning,0830.2,5.00,000.00,021.8,020.6,000.0,030.1,023.1,22.1,0000.0,0004.90,0007.46,0004.75
2024-01-26 11:15:00,SystemResetWarning,0830.2,5.00,000.00,021.8,020.6,000.0,030.1,023.1,22.1,0000.0,0004.90,0006.85,0004.75
2024-01-26 11:16:00,SystemResetWarning,0830.2,5.00,000.00,021.8,020.6,000.0,030.1,023.1,22.1,0000.0,0004.89,0006.78,0004.76
2024-01-26 11:17:00,SystemResetWarning,0830.2,4.99,000.00,021.7,020.5,000.0,030.1,023.1,22.2,0000.0,0004.89,0006.91,0004.76
2024-01-26 11:18:00,SystemResetWarning,0830.3,5.00,000.00,021.7,020.5,000.0,030.1,023.1,22.2,0000.0,0004.90,0006.91,0004.78
2024-01-26 11:19:00,SystemResetWarning,0830.3,5.00,000.00,021.7,020.5,000.0,030.1,023.1,22.2,0000.0,0004.91,0006.96,0004.78
2024-01-26 11:20:00,SystemResetWarning,0830.3,5.01,000.00,021.7,020.5,000.0,030.1,023.1,22.2,0000.0,0004.96,0007.16,0004.81
2024-01-26 11:21:00,SystemResetWarning,0830.3,5.01,000.00,021.7,020.5,000.0,030.1,023.1,22.2,0000.0,0004.96,0007.35,0004.81
2024-01-26 11:22:00,SystemResetWarning,0830.3,5.00,000.00,021.7,020.5,000.0,030.1,023.0,22.2,0000.0,0004.96,0007.47,0004.82
2024-01-26 11:23:00,SystemResetWarning,0830.3,5.00,000.00,021.7,020.5,000.0,030.1,023.0,22.3,0000.0,0004.93,0007.41,0004.82
2024-01-26 11:24:00,SystemResetWarning,0830.3,5.01,000.00,021.7,020.5,000.0,030.1,023.0,22.3,0000.0,0004.96,0007.44,0004.84
2024-01-26 11:25:00,SystemResetWarning,0830.2,5.00,000.00,021.7,020.5,000.0,030.1,023.0,22.3,0000.0,0004.98,0007.48,0004.85
2024-01-26 11:26:00,SystemResetWarning,0830.2,4.99,000.00,021.7,020.4,000.0,030.1,023.0,22.3,0000.0,0004.99,0007.52,0004.86
2024-01-26 11:27:00,SystemResetWarning,0830.2,4.99,000.00,021.7,020.4,000.0,030.0,023.0,22.3,0000.0,0005.00,0007.48,0004.87
2024-01-26 11:28:00,SystemResetWarning,0830.2,5.00,000.00,021.6,020.4,000.0,030.0,023.0,22.3,0000.3,0005.02,0007.43,0004.89
2024-01-26 11:29:00,SystemResetWarning,0830.2,5.01,000.00,021.6,020.4,000.0,030.0,023.0,22.4,0000.4,0005.05,0007.48,0004.91
2024-01-26 11:30:00,SystemResetWarning,0830.2,5.00,000.00,021.6,020.4,000.0,030.0,023.0,22.4,0000.5,0005.08,0007.52,0004.94
2024-01-26 11:31:00,SystemResetWarning,0830.2,5.00,000.00,021.6,020.4,000.0,030.0,023.0,22.4,0000.5,0005.08,0007.49,0004.95
2024-01-26 11:32:00,SystemResetWarning,0830.2,4.99,000.00,021.6,020.4,000.0,030.0,023.0,22.4,0000.6,0005.10,0007.38,0004.99
2024-01-26 11:33:00,SystemResetWarning,0830.2,4.99,000.00,021.6,020.4,000.0,030.0,023.0,22.4,0000.9,0005.14,0007.20,0005.02
2024-01-26 11:34:00,SystemResetWarning,0830.2,5.00,000.00,021.6,020.4,000.0,030.0,022.9,22.5,0000.9,0005.16,0007.31,0005.03
2024-01-26 11:35:00,SystemResetWarning,0830.3,5.01,000.00,021.6,020.4,000.0,030.0,022.9,22.5,0001.1,0005.17,0007.36,0005.04
2024-01-26 11:36:00,SystemResetWarning,0830.3,5.00,000.00,021.6,020.4,000.0,030.0,022.9,22.5,0001.1,0005.17,0007.34,0005.05
2024-01-26 11:37:00,SystemResetWarning,0830.3,5.01,000.00,021.6,020.4,000.0,030.0,022.9,22.5,0000.8,0005.18,0007.34,0005.07
2024-01-26 11:38:00,SystemResetWarning,0830.3,5.01,000.00,021.6,020.3,000.0,030.0,022.9,22.5,0000.4,0005.22,0007.44,0005.09
2024-01-26 11:39:00,SystemResetWarning,0830.3,5.00,000.00,021.6,020.4,000.0,030.0,022.9,22.5,-000.2,0005.24,0007.47,0005.10
2024-01-26 11:40:00,SystemResetWarning,0830.3,5.00,000.00,021.5,020.4,000.0,029.9,022.9,22.5,0000.0,0005.22,0007.43,0005.09
2024-01-26 11:41:00,SystemResetWarning,0830.4,4.99,000.00,021.5,020.4,000.0,029.9,022.9,22.5,0000.0,0005.21,0007.42,0005.08
2024-01-26 11:42:00,SystemResetWarning,0830.5,5.00,000.00,021.5,020.4,000.0,029.9,022.9,22.5,0000.7,0005.23,0007.44,0005.08
2024-01-26 11:43:00,SystemResetWarning,0830.4,5.01,000.00,021.5,020.4,000.0,029.9,022.9,22.5,0000.8,0005.22,0007.47,0005.07
2024-01-26 11:44:00,SystemResetWarning,0830.4,5.01,000.00,021.5,020.4,000.0,029.9,022.9,22.4,0000.6,0005.21,0008.07,0005.05
2024-01-26 11:45:00,SystemResetWarning,0830.4,5.00,000.00,021.5,020.5,000.0,029.9,022.9,22.0,0000.7,0005.22,0008.07,0005.05
2024-01-26 11:46:00,SystemResetWarning,0830.5,5.00,000.00,021.5,020.5,000.0,029.9,023.0,21.8,0000.5,0005.23,0008.06,0005.05
2024-01-26 11:47:00,SystemResetWarning,0830.5,4.99,000.00,021.5,020.5,000.0,029.9,023.0,21.7,0000.5,0005.23,0008.08,0005.04
2024-01-26 11:48:00,SystemResetWarning,0830.5,5.00,000.00,021.6,020.5,000.0,029.9,023.0,21.8,0000.8,0005.23,0008.09,0005.03
2024-01-26 11:49:00,SystemResetWarning,0830.6,4.99,000.00,021.6,020.5,000.0,029.9,022.9,21.6,0001.5,0005.19,0008.02,0005.01
2024-01-26 11:50:00,SystemResetWarning,0830.5,4.99,000.00,021.6,020.5,000.0,029.9,022.9,21.5,0001.6,0005.19,0007.98,0005.02
2024-01-26 11:51:00,SystemResetWarning,0830.6,5.00,000.00,021.6,020.5,000.0,029.9,022.9,21.6,0001.7,0005.21,0008.05,0005.04
2024-01-26 11:52:00,SystemResetWarning,0830.6,5.01,000.00,021.6,020.5,000.0,029.9,022.9,21.6,0002.0,0005.23,0008.08,0005.06
2024-01-26 11:53:00,SystemResetWarning,0830.5,5.00,000.00,021.5,020.5,000.0,029.9,023.0,21.7,0001.8,0005.22,0008.04,0005.06
2024-01-26 11:54:00,SystemResetWarning,0830.5,5.01,000.00,021.5,020.5,000.0,029.9,023.0,21.7,0001.5,0005.23,0008.05,0005.06
2024-01-26 11:55:00,SystemResetWarning,0830.5,5.00,000.00,021.5,020.5,000.0,029.9,023.0,21.5,0001.4,0005.24,0007.58,0005.08
2024-01-26 11:56:00,SystemResetWarning,0830.6,5.00,000.00,021.6,020.6,000.0,029.9,023.0,21.5,0001.5,0005.25,0007.49,0005.10
2024-01-26 11:57:00,SystemResetWarning,0830.6,5.00,000.00,021.6,020.6,000.0,029.9,023.0,21.4,0001.6,0005.28,0007.51,0005.13
2024-01-26 11:58:00,SystemResetWarning,0830.6,5.00,000.00,021.6,020.6,000.0,029.9,023.0,21.6,0001.5,0005.29,0007.49,0005.15
2024-01-26 11:59:00,SystemResetWarning,0830.6,5.00,000.00,021.6,020.6,000.0,029.9,023.0,21.6,0001.8,0005.30,0007.81,0005.16
